| time (UTC) | temp F | wind direction | speed knots | gust knots | rain 1hr in | rain 24hr in | rain mn in | humidity % | barometer mb |
| 20260901140936 | 73 | 303 | 2.6 | 4.3 | 0.00 | 0.00 | 0.00 | ||
| 20260901140534 | 73 | 294 | 4.3 | 7.8 | 0.00 | 0.00 | 0.00 | ||
| 20260901140126 | 73 | 298 | 3.5 | 6.1 | 0.00 | 0.00 | 0.00 | ||
| 20260901135725 | 74 | 270 | 1.7 | 4.3 | 0.00 | 0.00 | 0.00 | ||
| 20260901135322 | 73 | 298 | 4.3 | 7.8 | 0.00 | 0.00 | 0.00 | ||
| 20260901134922 | 73 | 306 | 3.5 | 6.1 | 0.00 | 0.00 | 0.00 | ||
| 20260901134520 | 74 | 255 | 7.0 | 9.6 | 0.00 | 0.00 | 0.00 | ||
| 20260901134119 | 75 | 277 | 3.5 | 5.2 | 0.00 | 0.00 | 0.00 | ||
| 20260901133716 | 75 | 266 | 4.3 | 8.7 | 0.00 | 0.00 | 0.00 | ||
| 20260901133315 | 74 | 279 | 5.2 | 7.0 | 0.00 | 0.00 | 0.00 | ||
| 20260901132914 | 75 | 256 | 4.3 | 8.7 | 0.00 | 0.00 | 0.00 | ||
| 20260901132512 | 74 | 257 | 6.1 | 8.7 | 0.00 | 0.00 | 0.00 | ||
| 20260901132103 | 75 | 277 | 6.1 | 7.8 | 0.00 | 0.00 | 0.00 | ||
| 20260901131700 | 75 | 256 | 7.0 | 11.3 | 0.00 | 0.00 | 0.00 | ||
| 20260901131259 | 75 | 268 | 8.7 | 11.3 | 0.00 | 0.00 | 0.00 | ||
| 20260901130858 | 76 | 250 | 6.1 | 8.7 | 0.00 | 0.00 | 0.00 | ||
| 20260901130454 | 75 | 261 | 7.0 | 10.4 | 0.00 | 0.00 | 0.00 | ||
| 20260901130053 | 76 | 277 | 3.5 | 7.8 | 0.00 | 0.00 | 0.00 | ||
| 20260901125651 | 75 | 231 | 5.2 | 7.8 | 0.00 | 0.00 | 0.00 | ||
| 20260901125250 | 75 | 261 | 7.8 | 10.4 | 0.00 | 0.00 | 0.00 | ||
| 20260901124849 | 76 | 243 | 6.1 | 9.6 | 0.00 | 0.00 | 0.00 | ||
| 20260901124446 | 76 | 261 | 9.6 | 13.0 | 0.00 | 0.00 | 0.00 | ||
| 20260901124038 | 76 | 256 | 7.0 | 12.2 | 0.00 | 0.00 | 0.00 | ||
| 20260901123636 | 76 | 267 | 7.0 | 10.4 | 0.00 | 0.00 | 0.00 | ||
| 20260901123235 | 76 | 240 | 7.8 | 12.2 | 0.00 | 0.00 | 0.00 | ||
| 20260901122431 | 75 | 250 | 7.8 | 13.0 | 0.00 | 0.00 | 0.00 | ||
| 20260901121628 | 77 | 238 | 7.0 | 13.0 | 0.00 | 0.00 | 0.00 | ||
| 20260901121226 | 77 | 241 | 7.0 | 12.2 | 0.00 | 0.00 | 0.00 | ||
| 20260901120825 | 75 | 244 | 6.1 | 9.6 | 0.00 | 0.00 | 0.00 | ||
| 20260901120423 | 75 | 231 | 7.0 | 13.0 | 0.00 | 0.00 | 0.00 | ||
| 20260901120015 | 75 | 218 | 7.8 | 12.2 | 0.00 | 0.00 | 0.00 | ||
| 20260901115612 | 75 | 240 | 9.6 | 13.9 | 0.00 | 0.00 | 0.00 | ||
| 20260901115211 | 75 | 233 | 5.2 | 8.7 | 0.00 | 0.00 | 0.00 | ||
| 20260901114810 | 75 | 250 | 7.8 | 13.0 | 0.00 | 0.00 | 0.00 | ||
| 20260901114409 | 76 | 233 | 8.7 | 10.4 | 0.00 | 0.00 | 0.00 | ||
| 20260901114008 | 75 | 257 | 7.8 | 13.0 | 0.00 | 0.00 | 0.00 | ||
| 20260901113605 | 74 | 263 | 8.7 | 13.9 | 0.00 | 0.00 | 0.00 | ||
| 20260901113204 | 76 | 254 | 7.8 | 11.3 | 0.00 | 0.00 | 0.00 | ||
| 20260901112803 | 76 | 220 | 7.8 | 10.4 | 0.00 | 0.00 | 0.00 | ||
| 20260901112401 | 76 | 235 | 5.2 | 8.7 | 0.00 | 0.00 | 0.00 | ||
| 20260901111952 | 76 | 242 | 4.3 | 10.4 | 0.00 | 0.00 | 0.00 | ||
| 20260901111550 | 74 | 238 | 6.1 | 9.6 | 0.00 | 0.00 | 0.00 | ||
| 20260901111149 | 74 | 237 | 7.0 | 9.6 | 0.00 | 0.00 | 0.00 | ||
| 20260901110748 | 75 | 218 | 8.7 | 17.4 | 0.00 | 0.00 | 0.00 | ||
| 20260901110345 | 74 | 223 | 7.0 | 11.3 | 0.00 | 0.00 | 0.00 | ||
| 20260901105944 | 73 | 260 | 5.2 | 10.4 | 0.00 | 0.00 | 0.00 | ||
| 20260901105542 | 73 | 249 | 6.1 | 8.7 | 0.00 | 0.00 | 0.00 | ||
| 20260901105141 | 73 | 251 | 4.3 | 8.7 | 0.00 | 0.00 | 0.00 | ||
| 20260901104739 | 73 | 247 | 8.7 | 13.0 | 0.00 | 0.00 | 0.00 | ||
| 20260901104337 | 74 | 244 | 7.8 | 12.2 | 0.00 | 0.00 | 0.00 | ||
| 20260901103929 | 74 | 258 | 7.0 | 10.4 | 0.00 | 0.00 | 0.00 | ||
| 20260901103527 | 74 | 223 | 5.2 | 12.2 | 0.00 | 0.00 | 0.00 | ||
| 20260901103126 | 72 | 258 | 7.0 | 10.4 | 0.00 | 0.00 | 0.00 | ||
| 20260901102724 | 73 | 275 | 7.8 | 11.3 | 0.00 | 0.00 | 0.00 | ||
| 20260901102322 | 73 | 263 | 6.1 | 8.7 | 0.00 | 0.00 | 0.00 | ||
| 20260901101921 | 72 | 263 | 7.8 | 11.3 | 0.00 | 0.00 | 0.00 | ||
| 20260901101520 | 73 | 242 | 7.0 | 11.3 | 0.00 | 0.00 | 0.00 | ||
| 20260901101117 | 74 | 271 | 7.8 | 13.0 | 0.00 | 0.00 | 0.00 | ||
| 20260901100716 | 73 | 214 | 7.0 | 13.0 | 0.00 | 0.00 | 0.00 | ||
| 20260901100315 | 73 | 232 | 6.1 | 12.2 | 0.00 | 0.00 | 0.00 | ||
| 20260901095907 | 74 | 263 | 6.1 | 11.3 | 0.00 | 0.00 | 0.00 | ||
| 20260901095504 | 74 | 243 | 6.1 | 9.6 | 0.00 | 0.00 | 0.00 | ||
| 20260901095103 | 73 | 228 | 7.0 | 11.3 | 0.00 | 0.00 | 0.00 | ||
| 20260901094702 | 72 | 278 | 7.0 | 8.7 | 0.00 | 0.00 | 0.00 | ||
| 20260901094300 | 73 | 247 | 6.1 | 9.6 | 0.00 | 0.00 | 0.00 | ||
| 20260901093858 | 73 | 248 | 7.0 | 10.4 | 0.00 | 0.00 | 0.00 | ||
| 20260901093456 | 73 | 232 | 6.1 | 10.4 | 0.00 | 0.00 | 0.00 | ||
| 20260901093055 | 72 | 254 | 5.2 | 10.4 | 0.00 | 0.00 | 0.00 | ||
| 20260901092654 | 72 | 258 | 7.8 | 11.3 | 0.00 | 0.00 | 0.00 | ||
| 20260901091843 | 72 | 241 | 5.2 | 7.8 | 0.00 | 0.00 | 0.00 | ||
| 20260901091441 | 71 | 244 | 7.8 | 9.6 | 0.00 | 0.00 | 0.00 | ||
| 20260901091040 | 72 | 219 | 3.5 | 6.1 | 0.00 | 0.00 | 0.00 | ||
| 20260901090639 | 72 | 240 | 5.2 | 7.8 | 0.00 | 0.00 | 0.00 | ||
| 20260901090236 | 71 | 266 | 4.3 | 6.1 | 0.00 | 0.00 | 0.00 | ||
| 20260901085835 | 72 | 267 | 6.1 | 7.8 | 0.00 | 0.00 | 0.00 | ||
| 20260901085433 | 72 | 241 | 6.1 | 9.6 | 0.00 | 0.00 | 0.00 | ||
| 20260901085033 | 71 | 260 | 7.8 | 9.6 | 0.00 | 0.00 | 0.00 | ||
| 20260901084630 | 72 | 222 | 7.0 | 13.0 | 0.00 | 0.00 | 0.00 | ||
| 20260901084309 | 72 | 255 | 7.0 | 10.4 | 0.00 | 0.00 | 0.00 | ||
| 20260901084229 | 72 | 255 | 7.0 | 10.4 | 0.00 | 0.00 | 0.00 | ||
| 20260901083821 | 71 | 248 | 6.1 | 9.6 | 0.00 | 0.00 | 0.00 | ||
| 20260901083419 | 71 | 272 | 6.1 | 8.7 | 0.00 | 0.00 | 0.00 | ||
| 20260901083017 | 70 | 281 | 6.1 | 7.8 | 0.00 | 0.00 | 0.00 | ||
| 20260901082616 | 70 | 295 | 7.0 | 10.4 | 0.00 | 0.00 | 0.00 | ||
| 20260901082214 | 72 | 254 | 4.3 | 8.7 | 0.00 | 0.00 | 0.00 | ||
| 20260901081813 | 72 | 229 | 5.2 | 10.4 | 0.00 | 0.00 | 0.00 | ||
| 20260901081411 | 72 | 211 | 4.3 | 8.7 | 0.00 | 0.00 | 0.00 | ||
| 20260901081009 | 72 | 246 | 4.3 | 7.8 | 0.00 | 0.00 | 0.00 | ||
| 20260901080608 | 71 | 258 | 5.2 | 7.8 | 0.00 | 0.00 | 0.00 | ||
| 20260901080206 | 71 | 249 | 5.2 | 8.7 | 0.00 | 0.00 | 0.00 | ||
| 20260901075758 | 71 | 234 | 7.0 | 9.6 | 0.00 | 0.00 | 0.00 | ||
| 20260901075545 | 70 | 250 | 6.1 | 7.8 | 0.00 | 0.00 | 0.00 | ||
| 20260901075355 | 70 | 249 | 7.0 | 9.6 | 0.00 | 0.00 | 0.00 | ||
| 20260901074954 | 70 | 250 | 6.1 | 7.8 | 0.00 | 0.00 | 0.00 | ||
| 20260901074553 | 70 | 266 | 7.0 | 9.6 | 0.00 | 0.00 | 0.00 | ||
| 20260901074151 | 70 | 255 | 8.7 | 12.2 | 0.00 | 0.00 | 0.00 | ||
| 20260901073749 | 69 | 270 | 8.7 | 13.0 | 0.00 | 0.00 | 0.00 | ||
| 20260901073347 | 69 | 274 | 7.8 | 10.4 | 0.00 | 0.00 | 0.00 | ||
| 20260901072946 | 69 | 268 | 7.8 | 11.3 | 0.00 | 0.00 | 0.00 | ||
| 20260901072545 | 70 | 262 | 5.2 | 12.2 | 0.00 | 0.00 | 0.00 | ||
| 20260901072142 | 70 | 244 | 5.2 | 11.3 | 0.00 | 0.00 | 0.00 | ||
| 20260901071735 | 69 | 229 | 9.6 | 14.8 | 0.00 | 0.00 | 0.00 | ||
| 20260901071333 | 70 | 237 | 7.8 | 10.4 | 0.00 | 0.00 | 0.00 | ||
| 20260901070931 | 69 | 252 | 7.8 | 11.3 | 0.00 | 0.00 | 0.00 | ||
| 20260901070531 | 70 | 241 | 7.8 | 10.4 | 0.00 | 0.00 | 0.00 | ||
| 20260901070128 | 69 | 229 | 7.0 | 11.3 | 0.00 | 0.00 | 0.00 | ||
| 20260901065726 | 70 | 231 | 7.8 | 10.4 | 0.00 | 0.00 | 0.00 | ||
| 20260901065324 | 71 | 239 | 5.2 | 7.8 | 0.00 | 0.00 | 0.00 | ||
| 20260901064922 | 71 | 248 | 5.2 | 7.0 | 0.00 | 0.00 | 0.00 | ||
| 20260901064520 | 71 | 264 | 6.1 | 9.6 | 0.00 | 0.00 | 0.00 | ||
| 20260901064119 | 71 | 246 | 7.0 | 10.4 | 0.00 | 0.00 | 0.00 | ||
| 20260901063711 | 70 | 240 | 8.7 | 12.2 | 0.00 | 0.00 | 0.00 | ||
| 20260901063309 | 69 | 244 | 7.8 | 10.4 | 0.00 | 0.00 | 0.00 | ||
| 20260901062907 | 69 | 254 | 7.0 | 13.0 | 0.00 | 0.00 | 0.00 | ||
| 20260901062506 | 69 | 236 | 7.0 | 10.4 | 0.00 | 0.00 | 0.00 | ||
| 20260901062104 | 69 | 245 | 7.8 | 12.2 | 0.00 | 0.00 | 0.00 | ||
| 20260901061703 | 69 | 238 | 7.8 | 12.2 | 0.00 | 0.00 | 0.00 | ||
| 20260901061300 | 69 | 249 | 7.0 | 11.3 | 0.00 | 0.00 | 0.00 | ||
| 20260901060859 | 69 | 257 | 9.6 | 14.8 | 0.00 | 0.00 | 0.00 | ||
| 20260901060458 | 70 | 246 | 6.1 | 9.6 | 0.00 | 0.00 | 0.00 | ||
| 20260901060056 | 70 | 253 | 4.3 | 7.8 | 0.00 | 0.00 | 0.00 | ||
| 20260901055648 | 69 | 250 | 7.0 | 9.6 | 0.00 | 0.00 | 0.00 | ||
| 20260901055245 | 69 | 249 | 7.8 | 11.3 | 0.00 | 0.00 | 0.00 | ||
| 20260901054844 | 69 | 248 | 7.8 | 12.2 | 0.00 | 0.00 | 0.00 | ||
| 20260901054443 | 69 | 251 | 5.2 | 8.7 | 0.00 | 0.00 | 0.00 | ||
| 20260901054041 | 69 | 247 | 5.2 | 8.7 | 0.00 | 0.00 | 0.00 | ||
| 20260901053639 | 69 | 232 | 7.0 | 11.3 | 0.00 | 0.00 | 0.00 | ||
| 20260901053237 | 69 | 254 | 7.0 | 9.6 | 0.00 | 0.00 | 0.00 | ||
| 20260901052836 | 70 | 243 | 4.3 | 7.8 | 0.00 | 0.00 | 0.00 | ||
| 20260901052435 | 70 | 237 | 4.3 | 8.7 | 0.00 | 0.00 | 0.00 | ||
| 20260901052032 | 69 | 234 | 4.3 | 7.0 | 0.00 | 0.00 | 0.00 | ||
| 20260901051624 | 69 | 234 | 3.5 | 6.1 | 0.00 | 0.00 | 0.00 | ||
| 20260901051223 | 70 | 239 | 3.5 | 5.2 | 0.00 | 0.00 | 0.00 | ||
| 20260901050822 | 69 | 250 | 3.5 | 5.2 | 0.00 | 0.00 | 0.00 | ||
| 20260901050419 | 69 | 253 | 5.2 | 8.7 | 0.00 | 0.00 | 0.00 | ||
| 20260901050018 | 70 | 240 | 3.5 | 7.0 | 0.00 | 0.00 | 0.00 | ||
| 20260901045617 | 70 | 239 | 4.3 | 7.0 | 0.00 | 0.00 | 0.00 | ||
| 20260901045215 | 70 | 223 | 2.6 | 4.3 | 0.00 | 0.00 | 0.00 | ||
| 20260901044814 | 69 | 222 | 5.2 | 7.8 | 0.00 | 0.00 | 0.00 | ||
| 20260901044412 | 69 | 218 | 3.5 | 6.1 | 0.00 | 0.00 | 0.00 | ||
| 20260901044010 | 68 | 220 | 4.3 | 7.8 | 0.00 | 0.00 | 0.00 | ||
| 20260901043602 | 68 | 222 | 4.3 | 7.8 | 0.00 | 0.00 | 0.00 | ||
| 20260901043200 | 68 | 216 | 5.2 | 9.6 | 0.00 | 0.00 | 0.00 | ||
| 20260901042758 | 68 | 215 | 5.2 | 8.7 | 0.00 | 0.00 | 0.00 | ||
| 20260901042357 | 68 | 222 | 4.3 | 7.0 | 0.00 | 0.00 | 0.00 | ||
| 20260901041955 | 68 | 222 | 4.3 | 7.8 | 0.00 | 0.00 | 0.00 | ||
| 20260901041554 | 69 | 220 | 3.5 | 6.1 | 0.00 | 0.00 | 0.00 | ||
| 20260901041151 | 68 | 218 | 3.5 | 7.0 | 0.00 | 0.00 | 0.00 | ||
| 20260901040750 | 68 | 219 | 5.2 | 9.6 | 0.00 | 0.00 | 0.00 | ||
| 20260901040349 | 68 | 220 | 4.3 | 7.0 | 0.00 | 0.00 | 0.00 | ||
| 20260901035947 | 68 | 217 | 3.5 | 7.0 | 0.00 | 0.00 | 0.00 | ||
| 20260901035538 | 69 | 225 | 4.3 | 6.1 | 0.00 | 0.00 | 0.00 | ||
| 20260901035136 | 69 | 221 | 4.3 | 7.8 | 0.00 | 0.00 | 0.00 | ||
| 20260901034735 | 68 | 216 | 4.3 | 7.8 | 0.00 | 0.00 | 0.00 | ||
| 20260901034334 | 68 | 222 | 5.2 | 8.7 | 0.00 | 0.00 | 0.00 | ||
| 20260901033531 | 68 | 216 | 5.2 | 9.6 | 0.00 | 0.00 | 0.00 | ||
| 20260901033129 | 68 | 206 | 6.1 | 8.7 | 0.00 | 0.00 | 0.00 | ||
| 20260901032728 | 69 | 208 | 6.1 | 9.6 | 0.00 | 0.00 | 0.00 | ||
| 20260901032327 | 69 | 209 | 5.2 | 8.7 | 0.00 | 0.00 | 0.00 | ||
| 20260901031924 | 68 | 213 | 4.3 | 7.0 | 0.00 | 0.00 | 0.00 | ||
| 20260901031516 | 68 | 203 | 4.3 | 7.8 | 0.00 | 0.00 | 0.00 | ||
| 20260901031114 | 68 | 202 | 4.3 | 7.0 | 0.00 | 0.00 | 0.00 | ||
| 20260901030713 | 68 | 202 | 3.5 | 6.1 | 0.00 | 0.00 | 0.00 | ||
| 20260901030311 | 65 | 202 | 2.6 | 3.5 | 0.00 | 0.00 | 0.00 | ||
| 20260901025909 | 66 | 202 | 2.6 | 4.3 | 0.00 | 0.00 | 0.00 | ||
| 20260901025508 | 66 | 202 | 2.6 | 3.5 | 0.00 | 0.00 | 0.00 | ||
| 20260901025106 | 67 | 202 | 1.7 | 2.6 | 0.00 | 0.00 | 0.00 | ||
| 20260901024704 | 68 | 202 | 1.7 | 3.5 | 0.00 | 0.00 | 0.00 | ||
| 20260901024303 | 66 | 202 | 2.6 | 4.3 | 0.00 | 0.00 | 0.00 | ||
| 20260901023901 | 64 | 202 | 1.7 | 1.7 | 0.00 | 0.00 | 0.00 | ||
| 20260901023453 | 65 | 202 | 0.9 | 1.7 | 0.00 | 0.00 | 0.00 | ||
| 20260901023051 | 66 | 202 | 1.7 | 2.6 | 0.00 | 0.00 | 0.00 | ||
| 20260901022649 | 67 | 202 | 1.7 | 1.7 | 0.00 | 0.00 | 0.00 | ||
| 20260901022248 | 67 | 202 | 0.9 | 1.7 | 0.00 | 0.00 | 0.00 | ||
| 20260901021846 | 68 | 202 | 1.7 | 2.6 | 0.00 | 0.00 | 0.00 | ||
| 20260901021445 | 69 | 204 | 1.7 | 2.6 | 0.00 | 0.00 | 0.00 | ||
| 20260901021042 | 70 | 202 | 1.7 | 3.5 | 0.00 | 0.00 | 0.00 | ||
| 20260901020641 | 68 | 202 | 1.7 | 2.6 | 0.00 | 0.00 | 0.00 | ||
| 20260901020240 | 66 | 202 | 0.9 | 1.7 | 0.00 | 0.00 | 0.00 | ||
| 20260901015839 | 67 | 202 | 1.7 | 2.6 | 0.00 | 0.00 | 0.00 | ||
| 20260901015429 | 70 | 202 | 2.6 | 3.5 | 0.00 | 0.00 | 0.00 | ||
| 20260901015028 | 70 | 202 | 2.6 | 4.3 | 0.00 | 0.00 | 0.00 | ||
| 20260901014627 | 70 | 202 | 3.5 | 4.3 | 0.00 | 0.00 | 0.00 | ||
| 20260901014226 | 71 | 206 | 3.5 | 5.2 | 0.00 | 0.00 | 0.00 | ||
| 20260901013823 | 71 | 225 | 3.5 | 6.1 | 0.00 | 0.00 | 0.00 | ||
| 20260901013422 | 71 | 234 | 3.5 | 5.2 | 0.00 | 0.00 | 0.00 | ||
| 20260901013020 | 71 | 225 | 3.5 | 5.2 | 0.00 | 0.00 | 0.00 | ||
| 20260901012619 | 71 | 228 | 3.5 | 4.3 | 0.00 | 0.00 | 0.00 | ||
| 20260901012218 | 70 | 227 | 3.5 | 6.1 | 0.00 | 0.00 | 0.00 | ||
| 20260901011815 | 70 | 225 | 2.6 | 3.5 | 0.00 | 0.00 | 0.00 | ||
| 20260901011406 | 71 | 223 | 2.6 | 5.2 | 0.00 | 0.00 | 0.00 | ||
| 20260901011005 | 71 | 218 | 3.5 | 6.1 | 0.00 | 0.00 | 0.00 | ||
| 20260901010604 | 71 | 182 | 2.6 | 4.3 | 0.00 | 0.00 | 0.00 | ||
| 20260901010201 | 70 | 202 | 2.6 | 3.5 | 0.00 | 0.00 | 0.00 | ||
| 20260901005800 | 71 | 195 | 3.5 | 6.1 | 0.00 | 0.00 | 0.00 | ||
| 20260901005359 | 71 | 202 | 4.3 | 5.2 | 0.00 | 0.00 | 0.00 | ||
| 20260901004957 | 71 | 202 | 3.5 | 5.2 | 0.00 | 0.00 | 0.00 | ||
| 20260901004555 | 71 | 202 | 3.5 | 5.2 | 0.00 | 0.00 | 0.00 | ||
| 20260901004154 | 70 | 187 | 3.5 | 5.2 | 0.00 | 0.00 | 0.00 | ||
| 20260901003758 | 69 | 186 | 2.6 | 4.3 | 0.00 | 0.00 | 0.00 | ||
| 20260901003752 | 69 | 186 | 2.6 | 4.3 | 0.00 | 0.00 | 0.00 | ||
| 20260901003344 | 69 | 180 | 2.6 | 3.5 | 0.00 | 0.00 | 0.00 | ||
| 20260901002941 | 69 | 180 | 2.6 | 4.3 | 0.00 | 0.00 | 0.00 | ||
| 20260901002540 | 70 | 180 | 2.6 | 4.3 | 0.00 | 0.00 | 0.00 | ||
| 20260901002139 | 70 | 180 | 2.6 | 4.3 | 0.00 | 0.00 | 0.00 | ||
| 20260901001737 | 69 | 180 | 2.6 | 3.5 | 0.00 | 0.00 | 0.00 | ||
| 20260901001336 | 68 | 180 | 1.7 | 3.5 | 0.00 | 0.00 | 0.00 | ||
| 20260901000933 | 69 | 193 | 1.7 | 3.5 | 0.00 | 0.00 | 0.00 | ||
| 20260901000532 | 69 | 180 | 1.7 | 3.5 | 0.00 | 0.00 | 0.00 | ||
| 20260901000131 | 69 | 169 | 3.5 | 4.3 | 0.00 | 0.00 | 0.00 | ||
| 20260831235729 | 69 | 157 | 2.6 | 4.3 | 0.00 | 0.00 | 0.00 | ||
| 20260831235320 | 70 | 180 | 3.5 | 5.2 | 0.00 | 0.00 | 0.00 | ||
| 20260831234918 | 69 | 180 | 2.6 | 4.3 | 0.00 | 0.00 | 0.00 | ||
| 20260831234517 | 69 | 202 | 2.6 | 3.5 | 0.00 | 0.00 | 0.00 | ||
| 20260831234115 | 69 | 202 | 2.6 | 3.5 | 0.00 | 0.00 | 0.00 | ||
| 20260831233712 | 70 | 202 | 1.7 | 4.3 | 0.00 | 0.00 | 0.00 | ||
| 20260831233311 | 71 | 202 | 2.6 | 5.2 | 0.00 | 0.00 | 0.00 | ||
| 20260831232908 | 71 | 202 | 2.6 | 4.3 | 0.00 | 0.00 | 0.00 | ||
| 20260831232507 | 71 | 202 | 2.6 | 3.5 | 0.00 | 0.00 | 0.00 | ||
| 20260831232105 | 70 | 202 | 2.6 | 4.3 | 0.00 | 0.00 | 0.00 | ||
| 20260831231703 | 69 | 201 | 2.6 | 3.5 | 0.00 | 0.00 | 0.00 | ||
| 20260831231255 | 68 | 180 | 1.7 | 2.6 | 0.00 | 0.00 | 0.00 | ||
| 20260831230854 | 68 | 202 | 1.7 | 2.6 | 0.00 | 0.00 | 0.00 | ||
| 20260831230453 | 68 | 202 | 2.6 | 3.5 | 0.00 | 0.00 | 0.00 | ||
| 20260831230050 | 68 | 225 | 2.6 | 3.5 | 0.00 | 0.00 | 0.00 | ||
| 20260831225649 | 69 | 225 | 1.7 | 3.5 | 0.00 | 0.00 | 0.00 | ||
| 20260831225247 | 70 | 225 | 0.9 | 2.6 | 0.00 | 0.00 | 0.00 | ||
| 20260831224845 | 71 | 225 | 1.7 | 3.5 | 0.00 | 0.00 | 0.00 | ||
| 20260831224443 | 69 | 202 | 1.7 | 2.6 | 0.00 | 0.00 | 0.00 | ||
| 20260831224042 | 70 | 202 | 0.9 | 1.7 | 0.00 | 0.00 | 0.00 | ||
| 20260831223640 | 67 | 202 | 0.0 | 0.0 | 0.00 | 0.00 | 0.00 | ||
| 20260831223232 | 67 | 202 | 0.0 | 0.0 | 0.00 | 0.00 | 0.00 | ||
| 20260831222829 | 67 | 202 | 0.0 | 0.0 | 0.00 | 0.00 | 0.00 | ||
| 20260831222428 | 67 | 202 | 0.0 | 0.0 | 0.00 | 0.00 | 0.00 | ||
| 20260831222027 | 67 | 202 | 0.0 | 0.0 | 0.00 | 0.00 | 0.00 | ||
| 20260831221626 | 67 | 202 | 0.0 | 0.0 | 0.00 | 0.00 | 0.00 | ||
| 20260831221223 | 68 | 202 | 0.0 | 0.0 | 0.00 | 0.00 | 0.00 | ||
| 20260831220822 | 68 | 202 | 0.0 | 0.0 | 0.00 | 0.00 | 0.00 | ||
| 20260831220421 | 68 | 202 | 0.0 | 0.0 | 0.00 | 0.00 | 0.00 | ||
| 20260831220020 | 68 | 202 | 0.0 | 0.0 | 0.00 | 0.00 | 0.00 | ||
| 20260831215618 | 69 | 202 | 0.0 | 0.9 | 0.00 | 0.00 | 0.00 | ||
| 20260831215209 | 70 | 202 | 0.9 | 1.7 | 0.00 | 0.00 | 0.00 | ||
| 20260831214807 | 70 | 202 | 0.0 | 1.7 | 0.00 | 0.00 | 0.00 | ||
| 20260831214406 | 70 | 202 | 1.7 | 3.5 | 0.00 | 0.00 | 0.00 | ||
| 20260831214005 | 69 | 202 | 1.7 | 2.6 | 0.00 | 0.00 | 0.00 | ||
| 20260831213602 | 69 | 202 | 0.0 | 0.0 | 0.00 | 0.00 | 0.00 | ||
| 20260831213201 | 68 | 202 | 0.0 | 1.7 | 0.00 | 0.00 | 0.00 | ||
| 20260831212759 | 69 | 202 | 1.7 | 1.7 | 0.00 | 0.00 | 0.00 | ||
| 20260831212358 | 69 | 202 | 0.9 | 2.6 | 0.00 | 0.00 | 0.00 | ||
| 20260831211956 | 69 | 202 | 0.9 | 1.7 | 0.00 | 0.00 | 0.00 | ||
| 20260831211554 | 70 | 202 | 1.7 | 1.7 | 0.00 | 0.00 | 0.00 | ||
| 20260831211146 | 70 | 272 | 0.9 | 2.6 | 0.00 | 0.00 | 0.00 | ||
| 20260831210744 | 70 | 338 | 0.0 | 0.9 | 0.00 | 0.00 | 0.00 | ||
| 20260831210342 | 69 | 338 | 0.0 | 0.9 | 0.00 | 0.00 | 0.00 | ||
| 20260831205941 | 69 | 338 | 0.0 | 0.0 | 0.00 | 0.00 | 0.00 | ||
| 20260831205539 | 70 | 338 | 0.0 | 0.9 | 0.00 | 0.00 | 0.00 | ||
| 20260831205138 | 69 | 338 | 0.0 | 0.0 | 0.00 | 0.00 | 0.00 | ||
| 20260831204736 | 69 | 338 | 0.0 | 0.0 | 0.00 | 0.00 | 0.00 | ||
| 20260831204334 | 69 | 338 | 0.0 | 0.0 | 0.00 | 0.00 | 0.00 | ||
| 20260831203933 | 70 | 338 | 0.0 | 0.0 | 0.00 | 0.00 | 0.00 | ||
| 20260831203531 | 71 | 338 | 0.0 | 0.0 | 0.00 | 0.00 | 0.00 | ||
| 20260831203123 | 71 | 338 | 0.0 | 0.0 | 0.00 | 0.00 | 0.00 | ||
| 20260831202720 | 70 | 338 | 0.0 | 0.9 | 0.00 | 0.00 | 0.00 | ||
| 20260831202319 | 70 | 338 | 0.0 | 0.9 | 0.00 | 0.00 | 0.00 | ||
| 20260831201918 | 70 | 338 | 0.0 | 0.0 | 0.00 | 0.00 | 0.00 | ||
| 20260831201517 | 70 | 338 | 0.0 | 0.0 | 0.00 | 0.00 | 0.00 | ||
| 20260831201114 | 71 | 338 | 0.0 | 0.0 | 0.00 | 0.00 | 0.00 | ||
| 20260831200713 | 71 | 338 | 0.0 | 0.0 | 0.00 | 0.00 | 0.00 | ||
| 20260831200312 | 71 | 338 | 0.0 | 0.0 | 0.00 | 0.00 | 0.00 | ||
| 20260831195911 | 72 | 338 | 0.0 | 0.0 | 0.00 | 0.00 | 0.00 | ||
| 20260831195508 | 71 | 338 | 0.0 | 0.0 | 0.00 | 0.00 | 0.00 | ||
| 20260831195100 | 71 | 338 | 0.0 | 0.0 | 0.00 | 0.00 | 0.00 | ||
| 20260831194658 | 71 | 338 | 0.0 | 0.9 | 0.00 | 0.00 | 0.00 | ||
| 20260831194257 | 71 | 338 | 0.0 | 0.0 | 0.00 | 0.00 | 0.00 | ||
| 20260831193856 | 71 | 338 | 0.0 | 0.9 | 0.00 | 0.00 | 0.00 | ||
| 20260831193453 | 71 | 338 | 0.0 | 1.7 | 0.00 | 0.00 | 0.00 | ||
| 20260831193052 | 71 | 338 | 0.9 | 1.7 | 0.00 | 0.00 | 0.00 | ||
| 20260831192249 | 71 | 338 | 1.7 | 2.6 | 0.00 | 0.00 | 0.00 | ||
| 20260831191847 | 71 | 338 | 0.9 | 2.6 | 0.00 | 0.00 | 0.00 | ||
| 20260831191445 | 71 | 338 | 0.9 | 1.7 | 0.00 | 0.00 | 0.00 | ||
| 20260831191037 | 71 | 338 | 0.9 | 1.7 | 0.00 | 0.00 | 0.00 | ||
| 20260831190635 | 71 | 333 | 0.9 | 2.6 | 0.00 | 0.00 | 0.00 | ||
| 20260831190233 | 72 | 315 | 0.0 | 1.7 | 0.00 | 0.00 | 0.00 | ||
| 20260831185431 | 72 | 292 | 0.0 | 1.7 | 0.00 | 0.00 | 0.00 | ||
| 20260831185029 | 73 | 293 | 0.9 | 3.5 | 0.00 | 0.00 | 0.00 | ||
| 20260831184626 | 73 | 292 | 0.9 | 2.6 | 0.00 | 0.00 | 0.00 | ||
| 20260831184226 | 73 | 292 | 0.9 | 2.6 | 0.00 | 0.00 | 0.00 | ||
| 20260831183825 | 73 | 295 | 2.6 | 6.1 | 0.00 | 0.00 | 0.00 | ||
| 20260831183423 | 73 | 292 | 1.7 | 4.3 | 0.00 | 0.00 | 0.00 | ||
| 20260831183015 | 73 | 292 | 1.7 | 5.2 | 0.00 | 0.00 | 0.00 | ||
| 20260831182612 | 73 | 288 | 2.6 | 5.2 | 0.00 | 0.00 | 0.00 | ||
| 20260831182211 | 73 | 292 | 0.9 | 2.6 | 0.00 | 0.00 | 0.00 | ||
| 20260831181810 | 73 | 292 | 1.7 | 2.6 | 0.00 | 0.00 | 0.00 | ||
| 20260831181408 | 73 | 292 | 1.7 | 3.5 | 0.00 | 0.00 | 0.00 | ||
| 20260831181006 | 73 | 292 | 1.7 | 2.6 | 0.00 | 0.00 | 0.00 | ||
| 20260831180604 | 74 | 270 | 1.7 | 1.7 | 0.00 | 0.00 | 0.00 | ||
| 20260831180203 | 74 | 270 | 1.7 | 1.7 | 0.00 | 0.00 | 0.00 | ||
| 20260831175802 | 74 | 270 | 1.7 | 2.6 | 0.00 | 0.00 | 0.00 | ||
| 20260831175359 | 74 | 270 | 1.7 | 2.6 | 0.00 | 0.00 | 0.00 | ||
| 20260831174951 | 75 | 270 | 1.7 | 2.6 | 0.00 | 0.00 | 0.00 | ||
| 20260831174549 | 74 | 270 | 2.6 | 4.3 | 0.00 | 0.00 | 0.00 | ||
| 20260831174148 | 75 | 270 | 3.5 | 4.3 | 0.00 | 0.00 | 0.00 | ||
| 20260831173746 | 75 | 270 | 3.5 | 5.2 | 0.00 | 0.00 | 0.00 | ||
| 20260831173344 | 75 | 270 | 2.6 | 5.2 | 0.00 | 0.00 | 0.00 | ||
| 20260831172943 | 75 | 270 | 2.6 | 3.5 | 0.00 | 0.00 | 0.00 | ||
| 20260831172542 | 75 | 270 | 2.6 | 5.2 | 0.00 | 0.00 | 0.00 | ||
| 20260831172140 | 76 | 270 | 3.5 | 4.3 | 0.00 | 0.00 | 0.00 | ||
| 20260831171738 | 76 | 272 | 3.5 | 5.2 | 0.00 | 0.00 | 0.00 | ||
| 20260831171336 | 76 | 269 | 4.3 | 6.1 | 0.00 | 0.00 | 0.00 | ||
| 20260831170928 | 76 | 272 | 3.5 | 5.2 | 0.00 | 0.00 | 0.00 | ||
| 20260831170527 | 77 | 265 | 5.2 | 7.8 | 0.00 | 0.00 | 0.00 | ||
| 20260831170124 | 77 | 256 | 3.5 | 6.1 | 0.00 | 0.00 | 0.00 | ||
| 20260831165724 | 78 | 244 | 4.3 | 7.0 | 0.00 | 0.00 | 0.00 | ||
| 20260831165322 | 79 | 254 | 4.3 | 8.7 | 0.00 | 0.00 | 0.00 | ||
| 20260831164921 | 82 | 262 | 2.6 | 6.1 | 0.00 | 0.00 | 0.00 | ||
| 20260831164518 | 82 | 249 | 2.6 | 4.3 | 0.00 | 0.00 | 0.00 | ||
| 20260831164117 | 82 | 248 | 3.5 | 7.0 | 0.00 | 0.00 | 0.00 | ||
| 20260831163716 | 83 | 268 | 2.6 | 5.2 | 0.00 | 0.00 | 0.00 | ||
| 20260831163314 | 82 | 256 | 4.3 | 7.0 | 0.00 | 0.00 | 0.00 | ||
| 20260831162905 | 82 | 254 | 4.3 | 7.8 | 0.00 | 0.00 | 0.00 | ||
| 20260831162502 | 81 | 261 | 4.3 | 7.0 | 0.00 | 0.00 | 0.00 | ||
| 20260831162101 | 77 | 266 | 3.5 | 6.1 | 0.00 | 0.00 | 0.00 | ||
| 20260831161700 | 78 | 254 | 4.3 | 6.1 | 0.00 | 0.00 | 0.00 | ||
| 20260831161258 | 79 | 255 | 3.5 | 5.2 | 0.00 | 0.00 | 0.00 | ||
| 20260831160856 | 78 | 252 | 4.3 | 7.0 | 0.00 | 0.00 | 0.00 | ||
| 20260831160453 | 78 | 265 | 3.5 | 5.2 | 0.00 | 0.00 | 0.00 | ||
| 20260831160052 | 78 | 255 | 4.3 | 6.1 | 0.00 | 0.00 | 0.00 | ||
| 20260831155651 | 78 | 265 | 3.5 | 5.2 | 0.00 | 0.00 | 0.00 | ||
| 20260831155248 | 78 | 258 | 6.1 | 7.8 | 0.00 | 0.00 | 0.00 | ||
| 20260831154840 | 78 | 255 | 4.3 | 7.0 | 0.00 | 0.00 | 0.00 | ||
| 20260831154438 | 78 | 259 | 5.2 | 10.4 | 0.00 | 0.00 | 0.00 | ||
| 20260831154037 | 78 | 261 | 4.3 | 7.0 | 0.00 | 0.00 | 0.00 | ||
| 20260831153635 | 79 | 236 | 4.3 | 10.4 | 0.00 | 0.00 | 0.00 | ||
| 20260831153233 | 79 | 258 | 7.8 | 10.4 | 0.00 | 0.00 | 0.00 | ||
| 20260831152832 | 79 | 259 | 7.8 | 10.4 | 0.00 | 0.00 | 0.00 | ||
| 20260831152430 | 79 | 255 | 7.8 | 11.3 | 0.00 | 0.00 | 0.00 | ||
| 20260831152028 | 80 | 272 | 5.2 | 8.7 | 0.00 | 0.00 | 0.00 | ||
| 20260831151627 | 79 | 232 | 7.0 | 9.6 | 0.00 | 0.00 | 0.00 | ||
| 20260831151225 | 79 | 236 | 6.1 | 11.3 | 0.00 | 0.00 | 0.00 | ||
| 20260831150818 | 78 | 235 | 8.7 | 12.2 | 0.00 | 0.00 | 0.00 | ||
| 20260831150416 | 78 | 230 | 7.0 | 8.7 | 0.00 | 0.00 | 0.00 | ||
| 20260831150014 | 78 | 243 | 7.0 | 10.4 | 0.00 | 0.00 | 0.00 | ||
| 20260831145613 | 78 | 260 | 7.8 | 9.6 | 0.00 | 0.00 | 0.00 | ||
| 20260831145211 | 78 | 263 | 8.7 | 11.3 | 0.00 | 0.00 | 0.00 | ||
| 20260831144810 | 78 | 263 | 8.7 | 13.0 | 0.00 | 0.00 | 0.00 | ||
| 20260831144506 | 78 | 269 | 5.2 | 7.8 | 0.00 | 0.00 | 0.00 | ||
| 20260831144407 | 77 | 254 | 9.6 | 14.8 | 0.00 | 0.00 | 0.00 | ||
| 20260831144005 | 78 | 263 | 7.8 | 13.0 | 0.00 | 0.00 | 0.00 | ||
| 20260831143604 | 78 | 269 | 5.2 | 7.8 | 0.00 | 0.00 | 0.00 | ||
| 20260831143310 | 78 | 243 | 7.8 | 10.4 | 0.00 | 0.00 | 0.00 | ||
| 20260831143202 | 78 | 243 | 7.8 | 10.4 | 0.00 | 0.00 | 0.00 | ||
| 20260831142753 | 78 | 236 | 7.8 | 12.2 | 0.00 | 0.00 | 0.00 | ||
| 20260831142351 | 79 | 235 | 7.8 | 12.2 | 0.00 | 0.00 | 0.00 | ||
| 20260831141950 | 78 | 244 | 7.0 | 8.7 | 0.00 | 0.00 | 0.00 | ||
| 20260831141549 | 79 | 254 | 6.1 | 8.7 | 0.00 | 0.00 | 0.00 |